FDX737 EGLL-EGCC

Flight info

Callsign FDX737
Flight time 0h 33m
Altitude 18000
Route UMLAT T418 WELIN T420 ELVOS
Aircraft B738/M-SDE2E3FGHIRWXY/LB1

Departure

Time 2026-05-04 15:53
Airport London Heathrow Airport (EGLL)

Arrival

Time 2026-05-04 16:26
Airport Manchester Airport (EGCC)
Time Latitude Longitude Altitude Speed Heading
2026-05-04 15:32 51.47519 -0.42385 92 ft 0 kts 336°
2026-05-04 15:40 51.47519 -0.42386 92 ft 0 kts 336°
2026-05-04 15:40 51.47509 -0.42379 93 ft 2 kts 336°
2026-05-04 15:41 51.47495 -0.42369 94 ft 2 kts 336°
2026-05-04 15:41 51.47481 -0.42360 94 ft 2 kts 336°
2026-05-04 15:41 51.47468 -0.42350 94 ft 2 kts 336°
2026-05-04 15:41 51.47454 -0.42340 94 ft 2 kts 336°
2026-05-04 15:42 51.47440 -0.42331 95 ft 2 kts 336°
2026-05-04 15:42 51.47431 -0.42325 95 ft 2 kts 329°
2026-05-04 15:42 51.47423 -0.42306 95 ft 1 kts 281°
2026-05-04 15:42 51.47422 -0.42296 95 ft 1 kts 265°
2026-05-04 15:43 51.47422 -0.42290 95 ft 0 kts 270°
2026-05-04 15:47 51.47423 -0.42326 95 ft 8 kts 271°
2026-05-04 15:47 51.47424 -0.42487 93 ft 19 kts 273°
2026-05-04 15:48 51.47459 -0.42711 86 ft 23 kts 285°
2026-05-04 15:48 51.47505 -0.42968 82 ft 24 kts 287°
2026-05-04 15:48 51.47616 -0.43242 78 ft 7 kts 328°
2026-05-04 15:49 51.47624 -0.43247 78 ft 0 kts 340°
2026-05-04 15:50 51.47643 -0.43262 78 ft 9 kts 328°
2026-05-04 15:50 51.47727 -0.43375 81 ft 17 kts 320°
2026-05-04 15:51 51.47767 -0.43454 83 ft 0 kts 261°
2026-05-04 15:51 51.47767 -0.43455 83 ft 0 kts 269°
2026-05-04 15:51 51.47767 -0.43456 83 ft 0 kts 270°
2026-05-04 15:51 51.47767 -0.43465 83 ft 3 kts 270°
2026-05-04 15:52 51.47767 -0.43780 86 ft 60 kts 270°
2026-05-04 15:52 51.47763 -0.44788 91 ft 119 kts 270°
2026-05-04 15:52 51.47760 -0.46375 88 ft 166 kts 273°
2026-05-04 15:52 51.47744 -0.48304 402 ft 178 kts 270°
2026-05-04 15:53 51.47684 -0.50407 848 ft 195 kts 269°
2026-05-04 15:53 51.47603 -0.52613 1540 ft 199 kts 271°
2026-05-04 15:53 51.47625 -0.54775 2137 ft 202 kts 282°
2026-05-04 15:53 51.48163 -0.56895 2482 ft 212 kts 306°
2026-05-04 15:54 51.48970 -0.58903 3033 ft 220 kts 304°
2026-05-04 15:54 51.49773 -0.61142 3296 ft 240 kts 300°
2026-05-04 15:54 51.50563 -0.63577 3695 ft 259 kts 299°
2026-05-04 15:54 51.51408 -0.66240 4118 ft 274 kts 302°
2026-05-04 15:55 51.52636 -0.68383 5113 ft 262 kts 327°
2026-05-04 15:55 51.54340 -0.69363 5620 ft 269 kts 355°
2026-05-04 15:55 51.56226 -0.69242 6019 ft 278 kts
2026-05-04 15:55 51.58139 -0.68960 6214 ft 271 kts
2026-05-04 15:56 51.59938 -0.68777 6878 ft 257 kts 360°
2026-05-04 15:56 51.61826 -0.68843 6686 ft 288 kts 356°
2026-05-04 15:56 51.63880 -0.69048 6352 ft 296 kts 355°
2026-05-04 15:56 51.65877 -0.69285 6384 ft 278 kts 355°
2026-05-04 15:57 51.67698 -0.69576 6790 ft 256 kts 352°
2026-05-04 15:57 51.69386 -0.69993 7574 ft 245 kts 349°
2026-05-04 15:57 51.71094 -0.70477 8481 ft 253 kts 349°
2026-05-04 15:57 51.72844 -0.70973 9364 ft 262 kts 349°
2026-05-04 15:58 51.74647 -0.71468 10240 ft 269 kts 349°
2026-05-04 15:58 51.76501 -0.71967 11102 ft 276 kts 349°
2026-05-04 15:58 51.78426 -0.72485 11787 ft 290 kts 349°
2026-05-04 15:58 51.80455 -0.73033 12421 ft 305 kts 349°
2026-05-04 15:59 51.82604 -0.73618 13044 ft 320 kts 349°
2026-05-04 15:59 51.84840 -0.74228 13659 ft 335 kts 349°
2026-05-04 15:59 51.87179 -0.74867 14292 ft 348 kts 349°
2026-05-04 15:59 51.89581 -0.75524 14915 ft 361 kts 349°
2026-05-04 16:00 51.92111 -0.76217 15549 ft 373 kts 349°
2026-05-04 16:00 51.94689 -0.76924 16179 ft 384 kts 349°
2026-05-04 16:00 51.97334 -0.77650 16809 ft 389 kts 349°
2026-05-04 16:00 52.00005 -0.78383 17449 ft 394 kts 349°
2026-05-04 16:01 52.02723 -0.79131 17925 ft 402 kts 349°
2026-05-04 16:01 52.05484 -0.79893 18009 ft 417 kts 349°
2026-05-04 16:01 52.08394 -0.80698 18017 ft 430 kts 349°
2026-05-04 16:01 52.11387 -0.81525 18015 ft 436 kts 349°
2026-05-04 16:02 52.14370 -0.82349 18014 ft 437 kts 349°
2026-05-04 16:02 52.17363 -0.83178 18016 ft 437 kts 350°
2026-05-04 16:02 52.23311 -0.85105 18016 ft 436 kts 343°
2026-05-04 16:03 52.26120 -0.86737 18017 ft 435 kts 335°
2026-05-04 16:03 52.28838 -0.88956 17995 ft 432 kts 330°
2026-05-04 16:03 52.31382 -0.91377 17767 ft 427 kts 328°
2026-05-04 16:03 52.33909 -0.93961 17506 ft 422 kts 327°
2026-05-04 16:04 52.36335 -0.96498 17253 ft 420 kts 327°
2026-05-04 16:04 52.41241 -1.01588 16745 ft 416 kts 327°
2026-05-04 16:04 52.43701 -1.04097 16489 ft 415 kts 327°
2026-05-04 16:05 52.46123 -1.06545 16243 ft 414 kts 328°
2026-05-04 16:05 52.48568 -1.09004 15988 ft 412 kts 328°
2026-05-04 16:05 52.53431 -1.13890 15484 ft 409 kts 328°
2026-05-04 16:06 52.55862 -1.16338 15226 ft 407 kts 328°
2026-05-04 16:06 52.63014 -1.23560 14468 ft 402 kts 328°
2026-05-04 16:07 52.65390 -1.25967 14219 ft 401 kts 328°
2026-05-04 16:07 52.72461 -1.33149 13466 ft 396 kts 328°
2026-05-04 16:08 52.74770 -1.35500 13222 ft 395 kts 328°
2026-05-04 16:08 52.81709 -1.42587 12479 ft 390 kts 328°
2026-05-04 16:09 52.86306 -1.47298 11978 ft 386 kts 328°
2026-05-04 16:09 52.90842 -1.51956 11480 ft 383 kts 328°
2026-05-04 16:10 52.95325 -1.56573 10983 ft 380 kts 328°
2026-05-04 16:11 53.01983 -1.63464 10233 ft 375 kts 328°
2026-05-04 16:11 53.04208 -1.65792 10041 ft 372 kts 325°
2026-05-04 16:12 53.09700 -1.74764 10026 ft 374 kts 309°
2026-05-04 16:12 53.14473 -1.84485 10020 ft 338 kts 309°
2026-05-04 16:13 53.17349 -1.90171 10012 ft 304 kts 310°
2026-05-04 16:13 53.19976 -1.95308 9812 ft 280 kts 310°
2026-05-04 16:14 53.22388 -2.00005 9527 ft 257 kts 313°
2026-05-04 16:14 53.25304 -2.02820 8776 ft 250 kts 359°
2026-05-04 16:15 53.28933 -1.97784 7359 ft 250 kts 65°
2026-05-04 16:16 53.30854 -1.93148 6344 ft 241 kts 50°
2026-05-04 16:16 53.33456 -1.86259 4774 ft 234 kts 26°
2026-05-04 16:17 53.36547 -1.85638 3952 ft 221 kts 355°
2026-05-04 16:18 53.39986 -1.88673 3944 ft 163 kts 325°
2026-05-04 16:18 53.40928 -1.89755 4065 ft 162 kts 325°
2026-05-04 16:19 53.44011 -1.93304 3960 ft 182 kts 325°
2026-05-04 16:19 53.46127 -1.95758 3572 ft 185 kts 325°
2026-05-04 16:20 53.48480 -2.00164 3473 ft 181 kts 272°
2026-05-04 16:20 53.47418 -2.03872 3140 ft 189 kts 225°
2026-05-04 16:21 53.44666 -2.08411 2678 ft 180 kts 231°
2026-05-04 16:22 53.43150 -2.11435 2122 ft 161 kts 233°
2026-05-04 16:22 53.41036 -2.15783 2282 ft 167 kts 233°
2026-05-04 16:23 53.38913 -2.20221 1630 ft 158 kts 235°
2026-05-04 16:24 53.36336 -2.25501 383 ft 138 kts 232°
2026-05-04 16:25 53.35343 -2.27552 244 ft 52 kts 231°
2026-05-04 16:26 53.35234 -2.28119 235 ft 0 kts 266°
2026-05-04 16:27 53.35254 -2.28213 235 ft 6 kts 353°
2026-05-04 16:28 53.35483 -2.27920 239 ft 20 kts 19°
2026-05-04 16:28 53.35761 -2.27876 239 ft 0 kts
2026-05-04 16:30 53.35766 -2.27875 239 ft 4 kts
2026-05-04 16:31 53.35972 -2.27839 239 ft 0 kts
2026-05-04 16:31 53.36139 -2.28087 234 ft 20 kts 337°